カタログに戻る

STARLINK-35597

運用中通信VLEO
NORAD 66493·PAYLOAD·🇺🇸 United States

打ち上げ Nov 15, 2025 から Cape Canaveral Space Force Station

Loading…

次のパス (今後24時間)

TLE

最新Source: CelesTrak SupGP

元期: Sep 15, 2026, 04:09 UTC

1 66493C 25263J   26258.17340278  .00048982  00000+0  17738-2 0  2587
2 66493  43.0015   0.8723 0001489 262.0184 138.3429 15.27560352    15

AllMySatでSTARLINK-35597をリアルタイム追跡

Download on the App Store